Погода в Новокаякенте

Россия / Республика Дагестан     42°23′15″N   47°59′18″E
темп.,
°C
ветер,
м/с
пор.,
м/с
влажн.,
%
обл.,
%
осадки,
мм/ч
давл.,
гПа
погр.,
м
25 июня, сб
сб2500:00+21ю118392 0.4 100960
03:00+21сз118194 0.4 100875
06:00+21ююв1179100 0.0 1009125
09:00+22ссв327461 0.0 1009289
12:00+23ссв43705 0.0 1009370
15:00+23св337097 0.3 1008257
18:00+23ссз2372100 0.4 1008154
21:00+22ссз2277100 0.4 100930
26 июня, вс
вс2600:00+22сз2275100 0.0 100730
03:00+22ссз6876100 0.0 1008183
06:00+23зсз1274100 0.0 100847
09:00+23с6771100 0.0 1007284
12:00+24с686998 0.0 1006296
15:00+24с686955 0.0 1005250
18:00+24с7117093 0.0 1004243
21:00+23з4678100 0.3 100763
27 июня, пн
пн2700:00+23зсз5875100 0.3 1006120
03:00+23ссз1014780 0.3 1006262
06:00+24сз713670 0.0 1007267
09:00+25ссз1215630 0.0 1007387
12:00+26ссз1317660 0.0 1007446
15:00+24ссз1316730 0.0 1007401
18:00+24ссз1317705 0.0 1007396
21:00+25сз1117645 0.0 1007305
28 июня, вт
вт2800:00+25сз111864100 0.0 1007369
03:00+24сз11185882 0.0 1006408
06:00+24сз1117590 0.0 1007488
09:00+25ссз1317610 0.0 1007533
12:00+24с1115680 0.0 1007474
15:00+24с1216740 0.0 1008504
18:00+23ссз912760 0.0 1009396
21:00+23ссз710710 0.0 1010174
29 июня, ср
ср2900:00+23сз5965100 0.0 1010130
03:00+24сз4461100 0.0 101045
06:00+24ссз46630 0.0 101197
09:00+24с79600 0.0 1011323
12:00+24ссв68690 0.0 1011305
15:00+24св45810 0.0 1012289
18:00+23с44830 0.0 1013385
21:00+22с458322 0.0 1014439